Tallulah, LA

3:32 PM CDT on September 27, 2016 (GMT -0500)
Vicksburg Tallulah Regional

Weather History for KTVR - November, 2010

Change the Weather History Date:

Friday, November 26, 2010

  Actual Average Record
Temperature  
Mean Temperature 34 °F 52 °F  
Max Temperature 43 °F 64 °F 86 °F (1965)
Min Temperature 25 °F 41 °F 24 °F (1950)
Degree Days  
Heating Degree Days 30 13  
Month to date heating degree days 223 245  
Since 1 July heating degree days 304 347  
Cooling Degree Days 0 0  
Month to date cooling degree days 41 12  
Year to date cooling degree days 2748 2221  
Moisture  
Dew Point 27 °F    
Average Humidity 72    
Maximum Humidity 92    
Minimum Humidity 49    
Precipitation  
Precipitation 0.00 in 0.20 in 1.16 in (1948)
Month to date precipitation 2.90 4.13  
Year to date precipitation 29.47 48.26  
Sea Level Pressure  
Sea Level Pressure 30.18 in    
Wind  
Wind Speed 9 mph (North)    
Max Wind Speed 16 mph    
Max Gust Speed -    
Visibility 10 miles    
Events Rain    
T = Trace of Precipitation, MM = Missing Value Source: NWS Daily Summary

Daily Weather History Graph

Daily Weather History Graph

Search for Another Location

Airport or City:

Trip Planner

Search our weather history database for the weather conditions in past years. The results will help you decide how hot, cold, wet, or windy it might be!

Date:

Astronomy

Nov. 26, 2010 Rise Set
Actual Time 6:43 AM CST 4:59 PM CST
Civil Twilight 6:16 AM CST 5:25 PM CST
Nautical Twilight 5:46 AM CST 5:56 PM CST
Astronomical Twilight 5:17 AM CST 6:25 PM CST
Moon 10:02 PM CST (11/26) 10:54 AM CST (11/26)
Length of Visible Light 11h 09m
Length of Day
10h 16m
Waning Gibbous, 73% of the Moon is Illuminated
Nov 26
Waning Gibbous
Nov 28
Last Quarter
Dec 5
New
Dec 13
First Quarter
Dec 21
Full

Hourly Weather History & Observations

Time (CST) Temp. Windchill Dew Point Humidity Pressure Visibility Wind Dir Wind Speed Gust Speed Precip Events Conditions
1:53 AM - - - N/A% 30.03 in - North - - N/A   Unknown
2:53 AM - - - N/A% 30.03 in - North - - N/A   Unknown
3:53 AM - - - N/A% 30.06 in - North - - N/A   Unknown
4:53 AM - - - N/A% 30.08 in - North - - N/A   Unknown
5:53 AM - - - N/A% 30.11 in - North - - N/A   Unknown
6:53 AM - - - N/A% 30.14 in - North - - N/A   Unknown
7:53 AM - - - N/A% 30.14 in - North - - N/A   Unknown
8:53 AM - - - N/A% 30.17 in - North - - N/A   Unknown
9:53 AM - - - N/A% 30.20 in - North - - N/A   Unknown
10:30 AM 42.8 °F 35.8 °F 32.0 °F 66% 30.21 in 10.0 mi North 13.8 mph - N/A   Overcast
10:53 AM 41.0 °F 32.8 °F 32.0 °F 70% 30.21 in 10.0 mi North 16.1 mph - N/A   Overcast
11:53 AM 39.0 °F 33.4 °F 30.0 °F 70% 30.17 in 10.0 mi North 8.1 mph - 0.00 in Rain Light Rain
12:53 PM 39.0 °F 32.8 °F 28.9 °F 67% 30.18 in 10.0 mi North 9.2 mph - 0.00 in Rain Light Rain
1:53 PM 39.9 °F 32.9 °F 28.0 °F 63% 30.19 in 10.0 mi North 11.5 mph - 0.00 in   Clear
2:53 PM 42.1 °F 35.7 °F 27.0 °F 55% 30.20 in 10.0 mi North 11.5 mph - N/A   Clear
3:53 PM 43.0 °F 37.7 °F 25.0 °F 49% 30.21 in 10.0 mi North 9.2 mph - N/A   Clear
4:53 PM 41.0 °F 36.4 °F 25.0 °F 53% 30.22 in 10.0 mi North 6.9 mph - N/A   Clear
5:53 PM 36.0 °F - 25.0 °F 64% 30.22 in 10.0 mi Calm Calm - N/A   Clear
6:53 PM 30.0 °F - 25.0 °F 82% 30.22 in 10.0 mi Calm Calm - N/A   Clear
7:53 PM 30.0 °F - 25.0 °F 82% 30.21 in 10.0 mi Calm Calm - N/A   Clear
8:53 PM 27.0 °F 23.0 °F 25.0 °F 92% 30.23 in 10.0 mi North 3.5 mph - N/A   Clear
9:53 PM 26.1 °F - 24.1 °F 92% 30.24 in 10.0 mi Calm Calm - N/A   Clear
10:53 PM 28.0 °F - 24.1 °F 85% 30.27 in 10.0 mi Calm Calm - N/A   Clear
11:53 PM 25.0 °F - 23.0 °F 92% 30.27 in 10.0 mi Calm Calm - N/A   Clear